Location: Newark
(51.7378°N, 19.8125°E)
Time: 11:03:05
(UTC+00:00)

Envisat - Pass Details

Date: 08 December 2019
Orbit: 764 x 766 km, 98.1° (Epoch: 18 January)

Event Time Altitude Azimuth Distance (km) Brightness Sun altitude
Rises 04:12:16 0° 26° (NNE) 3,246 6.4 -20.7°
Reaches altitude 10° 04:15:26 10° 47° (NE) 2,314 5.9 -20.2°
Maximum altitude 04:18:41 17° 87° (E) 1,876 6.0 -19.7°
Drops below altitude 10° 04:21:55 10° 127° (SE) 2,302 6.5 -19.2°
Sets 04:25:03 0° 147° (SSE) 3,221 6.9 -18.7°
